sat.trackr.live / text

‹ back to catalog

UWE-4

NORAD 43880 · 2018-111E

PAYLOAD ACTIVE UNKNOWN

§ Identity

Operator
Country
GER
Launch date
2018-12-27
Launch site
VOSTO
Launch vehicle
Mass (kg)
RCS (m²)

Purposes: comms

External: N2YO · Heavens-Above · Gunter

§ Orbital elements

Epoch: 2026-05-24T18:35:34.690848Z

Period
93.24 min
Inclination
97.5851°
Eccentricity
0.0009925
Mean motion
15.44477012 rev/d
Perigee alt
426.2 km
Apogee alt
439.7 km
Semi-major
6,811.1 km
B*
6.1165e-4
RAAN
72.1148°
Arg perigee
60.2248°
Mean anomaly
299.9986°
Rev number
40,716

§ Raw data

UWE-41 43880U 18111E   26144.77470707  .00028353  00000+0  61165-3 0  99932 43880  97.5851  72.1148 0009925  60.2248 299.9986 15.44477012407165

JSON: /api/v1/satellites/43880 · /tle

For live sub-satellite position, see the globe view (requires WebGL).

§ Visibility from observer

Set your observer location to see the next 7 days of passes ≥ 10°. The values pass through the URL so the page stays shareable.

No JS? Fill the form by hand. The geolocation button needs JavaScript.

§ Radio — SatNOGS DB

ModeDescriptionDownlinkUplink
FSK Mode U - FSK 9600 AX.25 435.600 MHz
FSK FSK9k6 AX.25 TLM - 16K0F2D (inactive) 437.385 MHz

2 transmitters · refreshed weekly from db.satnogs.org